Probability
0 0 0 0 0 0 0 0 0 0 0 0 0 0 0 0 0 0 0 0 0 0 0 0 0 0 0 0 0 0 0 1 2 2 2 3 3 3 3 3 3 3 3
0 0 0 0 0 0 0 0 0 0 0 0 0 0 0 0 0 0 0 0 0 0 0 0 0 0 0 0 0 0 0 0 1 1 1 2 3 3 3 3 3 3 3
0 0 0 0 0 0 0 0 0 0 0 0 0 0 0 0 0 0 0 0 0 0 0 0 0 0 0 0 0 0 0 0 0 0 0 1 2 3 3 3 3 3 3
0 0 0 0 0 0 0 0 0 0 0 0 0 0 0 0 0 0 0 0 0 0 0 0 0 0 0 0 0 0 0 0 0 0 0 0 1 1 2 3 3 3 3
0 0 0 0 0 0 0 0 0 0 0 0 0 0 0 0 0 0 0 0 0 0 0 0 0 0 0 0 0 0 0 0 0 0 0 0 0 0 1 1 2 3 3
0 0 0 0 0 0 0 0 0 0 0 0 0 0 0 0 0 0 0 0 0 0 0 0 0 0 0 0 0 0 0 0 0 0 0 0 0 0 0 0 1 2 3
0 0 0 0 0 0 0 0 0 0 0 0 0 0 0 0 0 0 0 0 0 0 0 0 0 0 0 0 0 0 0 0 0 0 0 0 0 0 0 0 0 1 2
0 0 0 0 0 0 0 0 0 0 0 0 0 0 0 0 0 0 0 0 0 0 0 0 0 0 0 0 0 0 0 0 0 0 0 0 0 0 0 0 0 0 1
0 0 0 0 0 0 0 0 0 0 0 0 0 0 0 0 0 0 0 0 0 0 0 0 0 0 0 0 0 0 0 0 0 0 0 0 0 0 0 0 0 0 0
0 0 0 0 0 0 0 0 0 0 0 0 0 0 0 0 0 0 0 0 0 0 0 0 0 0 0 0 0 0 0 0 0 0 0 0 0 0 0 0 0 0 0
0 0 0 0 0 0 0 0 0 0 0 0 0 0 0 0 0 0 0 0 0 0 0 0 0 0 0 0 0 0 0 0 0 0 0 0 0 0 0 0 0 0 0
0 0 0 0 0 0 0 0 0 0 0 0 0 0 0 0 0 0 0 0 0 0 0 0 0 0 0 0 0 0 0 0 0 0 0 0 0 0 0 0 0 0 0
0 0 0 0 0 0 0 0 0 0 0 0 0 0 0 0 0 0 0 0 0 0 0 0 0 0 0 0 0 0 0 0 0 0 0 0 0 0 0 0 0 0 0
0 0 0 0 0 0 0 0 0 0 0 0 0 0 0 0 0 0 0 0 0 0 0 0 0 0 0 0 0 0 0 0 0 0 0 0 0 0 0 0 0 0 0
0 0 0 0 0 0 0 0 0 0 0 0 0 0 0 0 0 0 0 0 0 0 0 0 0 0 0 0 0 0 0 0 0 0 0 0 0 0 0 0 0 0 0
0 0 0 0 0 0 0 0 0 0 0 0 0 0 0 0 0 0 0 0 0 0 0 0 0 0 0 0 0 0 0 0 0 0 0 0 0 0 0 0 0 0 0
0 0 0 0 0 0 0 0 0 0 0 0 0 0 0 0 0 0 0 0 0 0 0 0 0 0 0 0 0 0 0 0 0 0 0 0 0 0 0 0 0 0 0
0 0 0 0 0 0 0 0 0 0 0 0 0 0 0 0 0 0 0 0 0 0 0 0 0 0 0 0 0 0 0 0 0 0 0 0 0 0 0 0 0 0 0
0 0 0 0 0 0 0 0 0 0 0 0 0 0 0 0 0 0 0 0 0 0 0 0 0 0 0 0 0 0 0 0 0 0 0 0 0 0 0 0 0 0 0
1 1 0 0 0 0 0 0 0 0 0 0 0 0 0 0 0 0 0 0 0 0 0 0 0 0 0 0 0 0 0 0 0 0 0 0 0 0 0 0 0 0 0
2 2 1 1 1 0 0 0 0 0 0 0 0 0 0 0 0 0 0 0 0 0 0 0 0 0 0 0 0 0 0 0 0 0 0 0 0 0 0 0 0 0 0
2 2 2 2 2 1 0 0 0 0 0 0 0 0 0 0 0 0 0 0 0 0 0 0 0 0 0 0 0 0 0 0 0 0 0 0 0 0 0 0 0 0 0
1 1 2 2 2 1 0 0 0 0 0 0 0 0 0 0 0 0 0 0 0 0 0 0 0 0 0 0 0 0 0 0 0 0 0 0 0 0 0 0 0 0 0
0 0 1 1 1 0 0 0 0 0 0 0 0 0 0 0 0 0 0 0 0 0 0 0 0 0 0 0 0 0 0 0 0 0 0 0 0 0 0 0 0 0 0
0 0 0 0 0 0 0 0 0 0 0 0 0 0 0 0 0 0 0 0 0 0 0 0 0 0 0 0 0 0 0 0 0 0 0 0 0 0 0 0 0 0 0
0 0 0 0 0 0 0 0 0 0 0 0 0 0 0 0 0 0 0 0 0 0 0 0 0 0 0 0 0 0 0 0 0 0 0 0 0 0 0 0 0 0 0
Wind_Speed
4 3 3 3 3 2 3 3 3 3 3 3 3 3 3 3 3 3 3 9 10 10 10 11 11 11 11 11 12 12 13 13 14 14 14 14 15 15 15 15 15 15 15
4 4 3 3 2 2 2 2 3 3 2 2 3 3 2 2 3 3 3 5 10 10 11 11 11 12 12 12 12 13 13 14 14 15 15 15 15 16 16 16 16 16 16
4 4 3 3 2 2 3 3 3 2 2 2 2 2 2 2 2 3 3 3 4 8 11 11 12 12 12 13 13 13 14 15 15 15 15 16 16 16 16 17 16 16 17
5 4 3 2 2 2 2 3 2 2 2 2 2 2 2 1 2 2 2 2 2 3 6 11 12 12 13 13 14 14 15 15 15 16 16 17 17 17 17 17 17 17 17
4 4 3 2 3 3 2 2 2 2 1 2 1 1 1 1 1 2 2 2 3 3 3 7 12 13 13 14 14 15 16 16 16 17 17 17 17 17 17 18 18 18 18
4 4 3 3 3 3 2 2 2 2 1 1 1 1 2 1 1 1 1 2 2 3 3 4 4 7 12 14 15 15 16 17 17 17 18 18 18 18 18 18 18 19 19
4 4 3 3 3 3 2 2 2 2 2 2 2 2 2 1 1 1 1 1 2 3 3 3 3 3 5 12 14 16 17 17 18 18 18 19 19 19 19 19 19 19 19
3 3 4 3 3 3 3 2 2 2 2 2 2 2 3 4 2 1 1 1 2 2 3 4 4 4 4 3 9 16 17 18 19 19 19 19 20 20 19 19 19 20 20
3 3 3 3 3 3 3 2 2 3 2 1 2 2 1 2 4 3 2 1 2 2 3 3 4 4 5 4 5 11 17 18 19 19 20 20 20 20 20 20 20 20 20
3 3 3 3 3 2 3 2 2 2 3 1 1 1 1 1 1 4 3 2 3 3 3 4 4 4 4 4 7 13 17 18 19 19 20 20 20 20 20 20 20 21 20
3 3 3 3 3 2 2 2 2 2 2 2 1 1 0 1 0 1 4 5 3 2 3 4 3 4 4 4 5 10 17 18 19 20 20 20 20 21 20 20 20 20 20
2 2 3 3 2 2 2 2 2 2 2 2 1 1 1 1 1 1 3 5 5 4 4 3 3 3 4 4 7 15 17 18 19 19 19 20 20 20 20 20 20 20 20
2 2 3 3 2 2 2 2 2 2 2 2 2 1 1 1 1 1 2 4 5 5 4 2 3 3 4 4 6 16 15 18 18 19 19 19 19 19 19 19 19 20 20
3 3 3 3 2 2 2 2 2 2 2 2 1 1 1 1 1 1 1 2 5 4 4 4 3 3 4 5 9 15 10 17 18 18 18 18 18 18 18 18 19 19 19
3 4 4 3 3 3 3 2 2 2 2 2 1 1 1 1 1 1 1 1 2 5 7 4 4 4 5 5 10 7 8 15 18 18 18 18 18 18 17 17 18 18 19
4 4 4 4 3 3 2 2 2 1 2 1 1 1 1 1 1 1 1 2 2 3 6 5 5 6 7 7 12 8 8 17 17 17 18 18 17 17 17 17 17 17 18
4 4 4 4 4 3 2 2 2 2 1 1 1 1 2 1 1 2 2 2 2 3 6 7 5 6 7 8 9 7 7 7 8 16 18 17 17 17 16 16 16 17 17
4 4 4 4 3 3 3 3 3 2 2 2 2 1 2 1 2 2 2 3 3 4 5 8 7 6 7 7 8 8 8 7 7 14 17 17 17 16 16 16 16 16 16
4 3 4 4 3 3 3 3 3 2 2 2 2 2 3 2 3 3 3 3 3 4 4 5 7 6 6 6 7 8 8 6 7 10 14 15 16 16 16 16 16 16 16
4 3 3 3 3 3 3 3 2 2 2 2 2 2 3 3 4 4 3 4 4 4 4 5 6 6 6 6 5 7 8 7 7 7 9 11 14 15 16 16 16 16 16
3 2 2 2 2 2 3 3 3 2 2 2 2 3 3 4 5 4 4 4 4 3 4 5 5 6 6 6 6 6 8 9 7 5 6 7 7 6 8 11 13 15 15
2 2 2 2 2 2 2 3 2 2 2 2 2 3 3 3 5 7 8 7 6 4 5 4 5 6 7 7 6 6 7 8 7 4 6 8 5 6 6 5 12 15 15
2 2 1 1 1 2 2 2 2 1 2 2 2 2 3 4 5 4 6 7 6 8 7 4 5 6 7 7 7 7 7 7 8 7 7 7 5 6 6 8 14 14 14
2 1 1 0 0 1 1 2 2 1 2 2 2 3 3 3 4 5 4 4 4 5 6 4 4 6 6 6 5 6 7 8 7 5 3 5 5 6 7 6 12 14 15
2 1 1 1 0 1 2 2 1 1 1 2 2 2 3 3 7 7 4 4 5 5 6 8 8 8 10 10 7 4 5 6 7 5 2 3 5 7 6 4 7 14 15
2 1 2 1 0 1 2 2 1 0 1 1 2 2 4 6 7 6 3 3 5 5 5 6 6 7 6 6 8 4 4 5 5 5 3 4 4 5 6 4 4 6 8
Wind_Direction
110 99 88 78 73 76 82 80 77 74 67 57 54 59 50 41 37 32 16 29 29 24 20 16 12 7 3 1 359 356 352 349 346 345 342 338 335 333 330 327 324 322 320
118 111 99 87 77 78 81 90 90 84 71 63 52 44 45 41 39 35 27 20 23 22 19 14 10 6 1 358 355 351 348 346 343 341 339 336 334 331 328 326 324 321 319
119 115 107 97 86 84 82 79 75 74 67 55 46 35 40 41 42 34 31 24 10 13 15 12 7 3 359 355 352 349 346 344 341 338 336 335 333 330 327 326 323 321 318
119 116 111 105 99 92 86 87 74 64 54 45 27 10 18 27 36 33 33 26 14 4 3 8 5 1 358 353 351 348 345 343 340 337 335 332 330 328 326 325 323 320 318
118 120 117 111 108 96 85 90 69 74 62 30 15 11 2 11 10 20 27 21 11 2 357 1 2 359 357 353 350 346 343 341 339 337 334 331 328 326 325 323 322 320 318
119 117 113 110 108 100 79 71 74 56 62 23 13 1 337 330 348 7 8 9 2 359 356 354 352 351 355 351 347 344 341 338 337 334 332 330 328 326 324 323 322 321 320
126 120 118 115 113 112 112 104 87 65 36 15 35 359 342 332 333 331 346 354 349 343 345 348 343 337 341 347 344 342 339 337 335 333 330 328 327 325 323 322 322 321 320
132 128 126 133 128 117 107 99 96 92 48 33 66 42 347 337 337 327 325 314 326 332 337 341 331 332 331 331 334 340 337 335 333 331 329 327 325 323 323 322 321 320 319
128 126 131 135 133 131 139 135 120 117 114 28 46 102 107 283 310 311 303 307 324 324 321 321 324 324 327 329 322 332 334 333 332 330 329 327 325 323 323 322 321 320 320
133 131 132 129 134 133 138 144 124 121 128 124 41 50 134 185 284 312 309 309 319 311 309 315 316 311 314 318 322 329 332 332 331 329 328 327 325 323 322 322 321 320 319
129 129 132 131 133 134 141 133 127 120 128 143 144 133 68 29 171 249 298 312 316 293 296 296 299 304 307 313 313 322 331 331 330 329 328 327 325 323 322 321 320 319 320
131 128 130 135 141 137 143 150 144 135 139 135 138 147 160 180 259 249 280 303 308 303 300 293 296 303 307 316 319 328 329 329 328 327 327 326 324 323 321 321 321 320 321
166 173 154 153 149 145 143 135 143 147 154 151 165 185 194 217 220 235 273 296 303 305 303 293 287 298 316 318 316 327 327 328 327 326 327 326 324 323 322 322 322 321 321
174 167 160 157 149 143 138 132 141 159 149 159 176 187 208 246 239 232 247 294 312 309 302 295 298 288 312 314 316 327 321 324 324 326 326 324 323 322 322 322 322 321 321
153 152 152 153 152 148 145 144 150 171 158 173 191 199 228 256 264 266 259 256 281 307 307 298 303 305 312 311 316 316 313 318 324 326 325 324 323 323 323 323 322 322 322
153 152 155 156 156 152 150 150 157 170 163 192 196 193 241 264 279 274 265 269 256 266 287 293 294 303 309 314 317 317 311 322 322 324 325 323 323 323 323 323 323 322 322
159 163 166 163 165 164 163 159 176 177 182 208 217 214 251 259 267 276 273 271 265 262 280 295 294 301 304 310 316 313 312 311 313 322 325 325 325 323 323 323 323 323 323
165 167 166 164 169 172 175 175 187 192 194 217 233 234 258 274 273 276 269 269 269 266 275 295 303 308 307 311 312 315 318 318 312 319 326 326 327 327 326 325 326 325 325
158 160 162 170 178 182 187 192 193 201 206 219 229 240 254 255 270 274 274 274 278 285 281 289 301 306 306 314 319 317 314 312 316 319 324 326 328 328 327 327 327 327 327
152 158 170 177 181 187 190 194 198 202 213 231 237 247 257 250 259 268 274 275 286 292 295 298 303 309 309 316 322 325 325 325 320 319 321 323 324 326 327 327 327 327 327
141 147 158 171 177 185 196 199 196 197 205 241 261 260 268 287 290 287 289 286 287 291 303 305 308 314 316 326 328 324 320 319 314 310 319 317 316 313 317 319 323 325 328
116 126 142 164 179 202 219 216 205 191 202 235 267 282 286 283 297 304 303 300 298 300 300 298 303 309 308 313 315 318 320 326 321 324 324 312 314 311 312 310 321 327 328
112 127 135 150 198 231 230 229 236 185 212 240 258 278 297 300 308 290 298 307 305 307 302 297 295 298 303 308 314 315 315 312 302 307 314 304 311 306 309 318 328 332 332
122 132 139 155 215 264 270 258 259 193 225 247 255 257 273 288 293 303 303 310 305 299 298 296 283 290 296 300 297 298 300 302 296 295 300 297 310 309 312 311 328 338 339
109 112 131 127 145 300 308 281 289 213 242 264 268 271 288 286 298 321 320 311 313 311 317 317 314 313 316 319 322 322 324 322 316 312 307 301 307 312 307 303 321 336 340
112 92 59 44 21 307 331 347 331 217 272 297 302 298 304 310 315 328 320 307 309 312 322 326 323 321 316 315 325 322 310 313 313 310 320 320 312 325 317 306 318 326 331